KINEIS-3D

Last updated on Wed Mar 11 2026 00:02:47 GMT+0000 (Coordinated Universal Time)

1 61221U 24172B 26069.24997860 .00002982 00000+0 47931-3 0 9993 2 61221 98.0289 160.2558 0002534 106.1405 254.0082 14.72325418 78797
UTC large
Height (km)
Speed (km/s)
/
Latitude / Longitude
Inclination (degrees)
Orbital Period (minutes)
Azimuth
Elevation
Range (km)
Doppler Factor

Next 0 passes for location: London (51.5072 / 0.1276)

Sorry there are no passes over London.